Weather History for West Palm Beach, FL

Change the Weather History Date:

Saturday, April 26, 2014

  Actual Average Record
Temperature  
Mean Temperature 78 °F 75 °F  
Max Temperature 87 °F 83 °F 93 °F (1988)
Min Temperature 69 °F 67 °F 51 °F (1910)
Degree Days  
Heating Degree Days 0 0  
Month to date heating degree days 0 0  
Since 1 July heating degree days 122 229  
Cooling Degree Days 13 10  
Month to date cooling degree days 270 223  
Year to date cooling degree days 818 651  
Growing Degree Days 28 (Base 50)    
Moisture  
Dew Point 67 °F    
Average Humidity 65    
Maximum Humidity 84    
Minimum Humidity 45    
Precipitation  
Precipitation 0.00 in 0.11 in 3.58 in (1940)
Month to date precipitation 1.04 3.27  
Year to date precipitation 14.92 13.81  
Snow  
Snow 0.00 in - - ()
Month to date snowfall 0.0  
Since 1 July snowfall 0.0  
Snow Depth 0.00 in    
Sea Level Pressure  
Sea Level Pressure 29.97 in    
Wind  
Wind Speed 8 mph (NE)    
Max Wind Speed 16 mph    
Max Gust Speed 20 mph    
Visibility 10 miles    
Events      
T = Trace of Precipitation, MM = Missing Value Source: NWS Daily Summary

Daily Weather History Graph

Daily Weather History Graph

Search for Another Location

Airport:

Trip Planner

Search our weather history database for the weather conditions in past years. The results will help you decide how hot, cold, wet, or windy it might be!

Date:

Astronomy

Apr. 26, 2014 Rise Set
Actual Time 6:46 AM EDT 7:50 PM EDT
Civil Twilight 6:22 AM EDT 8:14 PM EDT
Nautical Twilight 5:53 AM EDT 8:43 PM EDT
Astronomical Twilight 5:24 AM EDT 9:12 PM EDT
Moon 4:52 AM EDT (4/26) 5:30 PM EDT (4/26)
Length of Visible Light 13h 52m
Length of Day
13h 03m
Waning Crescent, 8% of the Moon is Illuminated
Apr 26
Waning Crescent
Apr 29
New
May 6
First Quarter
May 14
Full
May 21
Last Quarter

Hourly Weather History & Observations

Time (EDT) Temp. Heat Index Dew Point Humidity Pressure Visibility Wind Dir Wind Speed Gust Speed Precip Events Conditions
12:53 AM 75.0 °F - 70.0 °F 84% 29.97 in 10.0 mi West 3.5 mph - N/A   Scattered Clouds
1:53 AM 75.9 °F - 70.0 °F 82% 29.95 in 10.0 mi Calm Calm - N/A   Partly Cloudy
2:53 AM 75.0 °F - 70.0 °F 84% 29.93 in 10.0 mi SW 3.5 mph - N/A   Partly Cloudy
3:53 AM 71.1 °F - 66.9 °F 87% 29.92 in 10.0 mi WNW 4.6 mph - N/A   Partly Cloudy
4:53 AM 72.0 °F - 66.9 °F 84% 29.93 in 10.0 mi NNW 4.6 mph - N/A   Partly Cloudy
5:53 AM 71.1 °F - 66.9 °F 87% 29.94 in 10.0 mi Calm Calm - N/A   Partly Cloudy
6:53 AM 71.1 °F - 66.9 °F 87% 29.96 in 10.0 mi NNW 3.5 mph - N/A   Partly Cloudy
7:53 AM 73.0 °F - 66.0 °F 79% 29.98 in 7.0 mi North 6.9 mph - N/A   Partly Cloudy
8:53 AM 78.1 °F - 66.0 °F 66% 29.99 in 10.0 mi North 8.1 mph - N/A   Clear
9:53 AM 82.0 °F 83.8 °F 64.9 °F 56% 29.99 in 10.0 mi NNE 9.2 mph - N/A   Clear
10:53 AM 84.0 °F 85.4 °F 64.0 °F 51% 30.00 in 10.0 mi NE 11.5 mph - N/A   Clear
11:53 AM 84.9 °F 85.9 °F 63.0 °F 48% 30.01 in 10.0 mi NNE 9.2 mph - N/A   Partly Cloudy
12:53 PM 84.9 °F 86.1 °F 64.0 °F 49% 29.99 in 10.0 mi ENE 12.7 mph - N/A   Scattered Clouds
1:53 PM 86.0 °F 86.8 °F 63.0 °F 46% 29.99 in 10.0 mi ENE 13.8 mph - N/A   Scattered Clouds
2:53 PM 84.0 °F 86.3 °F 66.0 °F 55% 29.98 in 10.0 mi NE 15.0 mph - N/A   Scattered Clouds
3:53 PM 84.9 °F 87.6 °F 66.9 °F 55% 29.96 in 10.0 mi ENE 12.7 mph - N/A   Partly Cloudy
4:53 PM 84.0 °F 86.5 °F 66.9 °F 56% 29.96 in 10.0 mi East 12.7 mph - N/A   Partly Cloudy
5:53 PM 82.9 °F 85.8 °F 68.0 °F 60% 29.96 in 10.0 mi East 12.7 mph - N/A   Partly Cloudy
6:53 PM 81.0 °F 83.8 °F 68.0 °F 65% 29.97 in 10.0 mi East 10.4 mph - N/A   Partly Cloudy
7:53 PM 80.1 °F 82.9 °F 69.1 °F 69% 29.97 in 10.0 mi East 8.1 mph - N/A   Partly Cloudy
8:53 PM 79.0 °F - 69.1 °F 72% 29.99 in 10.0 mi East 9.2 mph - N/A   Partly Cloudy
9:53 PM 79.0 °F - 69.1 °F 72% 30.01 in 10.0 mi ESE 8.1 mph - N/A   Clear
10:53 PM 78.1 °F - 70.0 °F 76% 30.01 in 10.0 mi ESE 6.9 mph - N/A   Clear
11:53 PM 78.1 °F - 70.0 °F 76% 30.01 in 10.0 mi ESE 6.9 mph - N/A   Clear